Change the Weather History Date:

Saturday, November 17, 2012

  Actual Average Record
Temperature  
Mean Temperature 45 °F -  
Max Temperature 58 °F 53 °F 73 °F (2001)
Min Temperature 32 °F 35 °F 15 °F (1997)
Degree Days  
Heating Degree Days 20    
Moisture  
Dew Point 31 °F    
Average Humidity 61    
Maximum Humidity 86    
Minimum Humidity 35    
Precipitation  
Precipitation 0.00 in - - ()
Sea Level Pressure  
Sea Level Pressure 30.46 in    
Wind  
Wind Speed 4 mph (NE)    
Max Wind Speed 9 mph    
Max Gust Speed -    
Visibility 10 miles    
Events      
Averages and records for this station are not official NWS values.
T = Trace of Precipitation, MM = Missing Value Source: NWS Daily Summary

Daily Weather History Graph

Daily Weather History Graph

Search for Another Location

Airport or City:

Trip Planner

Search our weather history database for the weather conditions in past years. The results will help you decide how hot, cold, wet, or windy it might be!

Date:

Astronomy

Nov. 17, 2012 Rise Set
Actual Time 7:27 AM EST 5:30 PM EST
Civil Twilight 6:58 AM EST 5:58 PM EST
Nautical Twilight 6:26 AM EST 6:30 PM EST
Astronomical Twilight 5:55 AM EST 7:01 PM EST
Moon 11:11 AM EST (11/17) 9:39 PM EST (11/17)
Length of Visible Light 10h 59m
Length of Day
10h 03m
Waxing Crescent, 20% of the Moon is Illuminated
Nov 17
Waxing Crescent
Nov 20
First Quarter
Nov 28
Full
Dec 6
Last Quarter
Dec 13
New

Hourly Weather History & Observations

Time (EST) Temp. Windchill Dew Point Humidity Pressure Visibility Wind Dir Wind Speed Gust Speed Precip Events Conditions
12:55 AM 38.8 °F - 31.3 °F 74% 30.45 in 10.0 mi Calm Calm - N/A   Clear
1:55 AM 38.8 °F 35.4 °F 31.5 °F 75% 30.45 in 10.0 mi NE 4.6 mph - N/A   Clear
2:55 AM 35.6 °F 31.7 °F 30.4 °F 81% 30.46 in 10.0 mi NE 4.6 mph - N/A   Clear
3:55 AM 35.4 °F 30.5 °F 30.2 °F 81% 30.46 in 10.0 mi NE 5.8 mph - N/A   Clear
4:55 AM 34.2 °F 29.0 °F 29.8 °F 84% 30.46 in 10.0 mi NE 5.8 mph - N/A   Clear
5:55 AM 34.9 °F 32.0 °F 29.7 °F 81% 30.47 in 10.0 mi NE 3.5 mph - N/A   Clear
6:55 AM 33.3 °F 28.9 °F 28.9 °F 84% 30.48 in 10.0 mi NE 4.6 mph - N/A   Clear
7:55 AM 32.7 °F 29.6 °F 28.9 °F 86% 30.50 in 10.0 mi NE 3.5 mph - N/A   Clear
8:55 AM 37.2 °F 34.7 °F 32.4 °F 83% 30.51 in 10.0 mi NNE 3.5 mph - N/A   Clear
9:55 AM 41.9 °F 36.3 °F 33.1 °F 71% 30.51 in 10.0 mi NE 9.2 mph - N/A   Clear
10:55 AM 46.4 °F 43.5 °F 32.9 °F 59% 30.52 in 10.0 mi NE 5.8 mph - N/A   Clear
11:55 AM 51.1 °F - 31.8 °F 48% 30.50 in 10.0 mi East 5.8 mph - N/A   Clear
12:55 PM 53.6 °F - 30.7 °F 42% 30.47 in 10.0 mi East 6.9 mph - N/A   Clear
1:55 PM 56.5 °F - 30.4 °F 37% 30.44 in 10.0 mi ENE 8.1 mph - N/A   Clear
2:55 PM 57.9 °F - 30.2 °F 35% 30.43 in 10.0 mi ENE 6.9 mph - N/A   Clear
3:55 PM 58.3 °F - 30.4 °F 35% 30.42 in 10.0 mi East 6.9 mph - 0.00 in   Clear
4:55 PM 55.9 °F - 30.4 °F 38% 30.42 in 10.0 mi ENE 4.6 mph - 0.00 in   Clear
5:55 PM 52.9 °F - 31.1 °F 43% 30.43 in 10.0 mi NNE 3.5 mph - 0.00 in   Clear
6:55 PM 49.3 °F - 30.7 °F 49% 30.43 in 10.0 mi NE 4.6 mph - N/A   Clear
7:55 PM 47.3 °F - 30.6 °F 52% 30.43 in 10.0 mi NE 5.8 mph - N/A   Clear
8:55 PM 46.0 °F 43.9 °F 30.7 °F 55% 30.43 in 10.0 mi NE 4.6 mph - N/A   Clear
9:55 PM 41.7 °F 39.8 °F 30.6 °F 65% 30.43 in 10.0 mi ENE 3.5 mph - N/A   Clear
10:55 PM 45.3 °F 42.3 °F 30.0 °F 55% 30.43 in 10.0 mi ENE 5.8 mph - N/A   Clear
11:55 PM 44.4 °F 41.2 °F 28.9 °F 55% 30.42 in 10.0 mi NNE 5.8 mph - N/A   Clear